• In Germany
  • List of Countries
  • For 7 days
  • Water Temperature
  • Satellite Maps
  • Weather Map
  • Weather Widgets
  • user-avatar
    Login

    Hourly Weather Pabna

    Today, 29 June, Thursday

    Time Temperature Precipitation Wind Pressure Humidity
    00:00 +30°C° 0 mm 3 mps 749 mmHg 80%
    01:00 +30°C° 0 mm 3 mps 749 mmHg 81%
    02:00 +30°C° 0 mm 3 mps 749 mmHg 83%
    03:00 +30°C° 0 mm 3 mps 749 mmHg 84%
    04:00 +30°C° 0 mm 3 mps 749 mmHg 85%
    05:00 +30°C° 0 mm 3 mps 749 mmHg 85%
    06:00 +29°C° 0 mm 3 mps 749 mmHg 86%
    07:00 +32°C° 0.1 mm 4 mps 749 mmHg 80%
    08:00 +33°C° 0.1 mm 5 mps 749 mmHg 74%
    09:00 +34°C° 0.1 mm 5 mps 750 mmHg 67%
    10:00 +35°C° 0.1 mm 5 mps 749 mmHg 63%
    11:00 +38°C° 0.1 mm 6 mps 749 mmHg 59%
    12:00 +39°C° 0.1 mm 6 mps 749 mmHg 55%
    13:00 +39°C° 0.2 mm 6 mps 748 mmHg 54%
    14:00 +39°C° 0.2 mm 6 mps 747 mmHg 54%
    15:00 +39°C° 0.2 mm 6 mps 746 mmHg 54%
    16:00 +38°C° 0.1 mm 6 mps 746 mmHg 57%
    17:00 +36°C° 0.1 mm 6 mps 746 mmHg 61%
    18:00 +36°C° 0.1 mm 5 mps 746 mmHg 64%
    19:00 +35°C° 0 mm 5 mps 746 mmHg 67%
    20:00 +34°C° 0 mm 5 mps 747 mmHg 70%
    21:00 +33°C° 0 mm 5 mps 747 mmHg 73%
    22:00 +33°C° 0 mm 5 mps 747 mmHg 75%
    23:00 +32°C° 0 mm 5 mps 748 mmHg 77%

    Tomorrow, 30 June, Friday

    Time Temperature Precipitation Wind Pressure Humidity
    00:00 +30°C° 0 mm 5 mps 748 mmHg 80%
    01:00 +30°C° 0 mm 5 mps 748 mmHg 81%
    02:00 +30°C° 0 mm 5 mps 747 mmHg 81%
    03:00 +30°C° 0 mm 4 mps 747 mmHg 82%
    04:00 +30°C° 0 mm 4 mps 747 mmHg 83%
    05:00 +30°C° 0 mm 4 mps 747 mmHg 84%
    06:00 +30°C° 0 mm 4 mps 747 mmHg 84%
    07:00 +32°C° 0 mm 5 mps 747 mmHg 79%
    08:00 +33°C° 0 mm 5 mps 747 mmHg 73%
    09:00 +34°C° 0 mm 5 mps 747 mmHg 68%
    10:00 +36°C° 0.1 mm 5 mps 747 mmHg 63%
    11:00 +37°C° 0.1 mm 5 mps 747 mmHg 58%
    12:00 +39°C° 0.1 mm 5 mps 746 mmHg 53%
    13:00 +39°C° 0.3 mm 5 mps 746 mmHg 53%
    14:00 +39°C° 0.3 mm 6 mps 745 mmHg 53%
    15:00 +39°C° 0.3 mm 6 mps 744 mmHg 52%
    16:00 +37°C° 1.2 mm 5 mps 744 mmHg 57%
    17:00 +37°C° 1.2 mm 5 mps 744 mmHg 61%
    18:00 +36°C° 1.2 mm 5 mps 744 mmHg 66%
    19:00 +35°C° 0.6 mm 5 mps 745 mmHg 69%
    20:00 +34°C° 0.6 mm 5 mps 746 mmHg 73%
    21:00 +33°C° 0.6 mm 5 mps 746 mmHg 76%
    22:00 +32°C° 0 mm 5 mps 746 mmHg 78%
    23:00 +32°C° 0 mm 5 mps 747 mmHg 79%

    Day after tomorrow, 1 July, Saturday

    Time Temperature Precipitation Wind Pressure Humidity
    00:00 +32°C° 0 mm 5 mps 747 mmHg 81%
    01:00 +30°C° 0.3 mm 5 mps 746 mmHg 82%
    02:00 +30°C° 0.3 mm 5 mps 746 mmHg 83%
    03:00 +30°C° 0.3 mm 5 mps 746 mmHg 84%
    04:00 +30°C° 0.3 mm 5 mps 746 mmHg 84%
    05:00 +30°C° 0.3 mm 5 mps 746 mmHg 84%
    06:00 +30°C° 0.3 mm 5 mps 746 mmHg 84%
    07:00 +32°C° 1.5 mm 5 mps 746 mmHg 79%
    08:00 +33°C° 1.5 mm 6 mps 747 mmHg 74%
    09:00 +35°C° 1.5 mm 6 mps 747 mmHg 70%
    10:00 +35°C° 2.3 mm 6 mps 747 mmHg 67%
    11:00 +36°C° 2.3 mm 5 mps 747 mmHg 64%
    12:00 +37°C° 2.3 mm 5 mps 747 mmHg 62%
    13:00 +37°C° 2.7 mm 5 mps 746 mmHg 63%
    14:00 +36°C° 2.7 mm 5 mps 745 mmHg 65%
    15:00 +36°C° 2.7 mm 5 mps 745 mmHg 67%
    16:00 +35°C° 1 mm 5 mps 745 mmHg 70%
    17:00 +34°C° 1 mm 5 mps 745 mmHg 73%
    18:00 +34°C° 1 mm 4 mps 745 mmHg 76%
    19:00 +33°C° 1.4 mm 5 mps 746 mmHg 78%
    20:00 +32°C° 1.4 mm 5 mps 746 mmHg 80%
    21:00 +32°C° 1.4 mm 6 mps 747 mmHg 82%
    22:00 +30°C° 0.1 mm 6 mps 747 mmHg 83%
    23:00 +30°C° 0.1 mm 5 mps 747 mmHg 84%

    2 July, Sunday

    Time Temperature Precipitation Wind Pressure Humidity
    00:00 +30°C° 0.1 mm 5 mps 747 mmHg 85%
    01:00 +30°C° 0.1 mm 5 mps 747 mmHg 85%
    02:00 +30°C° 0.1 mm 5 mps 746 mmHg 86%
    03:00 +29°C° 0.1 mm 5 mps 746 mmHg 86%
    04:00 +29°C° 0.1 mm 4 mps 746 mmHg 86%
    05:00 +29°C° 0.1 mm 4 mps 746 mmHg 86%
    06:00 +29°C° 0.1 mm 4 mps 747 mmHg 87%
    07:00 +32°C° 0.8 mm 5 mps 747 mmHg 82%
    08:00 +33°C° 0.8 mm 5 mps 747 mmHg 77%
    09:00 +34°C° 0.8 mm 5 mps 747 mmHg 73%
    10:00 +35°C° 2.3 mm 5 mps 747 mmHg 70%
    11:00 +36°C° 2.3 mm 4 mps 747 mmHg 68%
    12:00 +36°C° 2.3 mm 4 mps 746 mmHg 65%
    13:00 +36°C° 4 mm 4 mps 746 mmHg 67%
    14:00 +36°C° 4 mm 4 mps 745 mmHg 69%
    15:00 +35°C° 4 mm 4 mps 745 mmHg 71%
    16:00 +35°C° 1.7 mm 3 mps 745 mmHg 75%
    17:00 +34°C° 1.7 mm 2 mps 745 mmHg 80%
    18:00 +32°C° 1.7 mm 2 mps 746 mmHg 85%
    19:00 +31°C° 1.2 mm 2 mps 746 mmHg 85%
    20:00 +31°C° 1.2 mm 3 mps 747 mmHg 86%
    21:00 +31°C° 1.2 mm 3 mps 747 mmHg 86%
    22:00 +30°C° 0.1 mm 3 mps 747 mmHg 87%
    23:00 +30°C° 0.1 mm 4 mps 747 mmHg 87%

    3 July, Monday

    Time Temperature Precipitation Wind Pressure Humidity
    00:00 +30°C° 0.1 mm 4 mps 747 mmHg 88%
    01:00 +30°C° 0.3 mm 4 mps 747 mmHg 88%
    02:00 +30°C° 0.3 mm 4 mps 747 mmHg 88%
    03:00 +30°C° 0.3 mm 4 mps 746 mmHg 88%
    04:00 +30°C° 0.1 mm 3 mps 747 mmHg 88%
    05:00 +30°C° 0.1 mm 3 mps 747 mmHg 88%
    06:00 +29°C° 0.1 mm 3 mps 747 mmHg 88%
    07:00 +31°C° 0 mm 3 mps 748 mmHg 82%
    08:00 +33°C° 0 mm 3 mps 748 mmHg 75%
    09:00 +34°C° 0 mm 4 mps 749 mmHg 68%
    10:00 +35°C° 0.3 mm 4 mps 748 mmHg 64%
    11:00 +36°C° 0.3 mm 4 mps 748 mmHg 59%
    12:00 +37°C° 0.3 mm 4 mps 748 mmHg 55%
    13:00 +37°C° 0.8 mm 3 mps 747 mmHg 54%
    14:00 +37°C° 0.8 mm 3 mps 747 mmHg 54%
    15:00 +38°C° 0.8 mm 3 mps 746 mmHg 54%
    16:00 +37°C° 0.8 mm 3 mps 746 mmHg 59%
    17:00 +36°C° 0.8 mm 2 mps 747 mmHg 64%
    18:00 +35°C° 0.8 mm 2 mps 747 mmHg 69%
    19:00 +34°C° 0.8 mm 2 mps 747 mmHg 72%
    20:00 +33°C° 0.8 mm 3 mps 748 mmHg 76%
    21:00 +31°C° 0.8 mm 3 mps 749 mmHg 79%
    22:00 +30°C° 0.1 mm 3 mps 748 mmHg 81%
    23:00 +30°C° 0.1 mm 4 mps 748 mmHg 83%

    4 July, Tuesday

    Time Temperature Precipitation Wind Pressure Humidity
    00:00 +30°C° 0.1 mm 4 mps 748 mmHg 85%
    01:00 +30°C° 0 mm 4 mps 748 mmHg 86%
    02:00 +30°C° 0 mm 4 mps 748 mmHg 86%
    03:00 +29°C° 0 mm 4 mps 747 mmHg 87%
    04:00 +29°C° 0.3 mm 4 mps 748 mmHg 87%
    05:00 +29°C° 0.3 mm 4 mps 748 mmHg 87%
    06:00 +29°C° 0.3 mm 4 mps 748 mmHg 87%
    07:00 +30°C° 0.7 mm 4 mps 749 mmHg 84%
    08:00 +32°C° 0.7 mm 4 mps 749 mmHg 80%
    09:00 +33°C° 0.7 mm 4 mps 749 mmHg 77%
    10:00 +34°C° 0.5 mm 4 mps 749 mmHg 72%
    11:00 +35°C° 0.5 mm 4 mps 749 mmHg 66%
    12:00 +36°C° 0.5 mm 3 mps 749 mmHg 61%
    13:00 +36°C° 2.5 mm 3 mps 748 mmHg 62%
    14:00 +36°C° 2.5 mm 2 mps 748 mmHg 63%
    15:00 +36°C° 2.5 mm 2 mps 747 mmHg 64%
    16:00 +35°C° 1 mm 2 mps 747 mmHg 69%
    17:00 +34°C° 1 mm 2 mps 747 mmHg 74%
    18:00 +32°C° 1 mm 2 mps 748 mmHg 79%
    19:00 +32°C° 0 mm 2 mps 748 mmHg 80%
    20:00 +31°C° 0 mm 2 mps 748 mmHg 82%
    21:00 +30°C° 0 mm 3 mps 749 mmHg 83%
    22:00 +30°C° 0.2 mm 3 mps 749 mmHg 84%
    23:00 +30°C° 0.2 mm 4 mps 748 mmHg 85%
    Show more